Вернуться в каталог

CHINASAT 20

АктивенСвязьGEO
NORAD 28082·PAYLOAD·🇨🇳 China

Запущен Nov 14, 2003 с Xichang Satellite Launch Center

Loading…

TLE

СвежийSource: Space-Track

Эпоха: Sep 14, 2026, 13:56 UTC

1 28082U 03052A   26257.58064771 -.00000025  00000-0  00000+0 0  9997
2 28082  10.6599  49.0299 0005155 141.0693  40.2566  0.99111163 83279

Отслеживайте CHINASAT 20 в реальном времени с AllMySat

Download on the App Store